{"data":{"norad_id":44782,"epoch":"2026-09-20T04:37:54.767136Z","epoch_age_seconds":88232,"freshness":"FRESH","line1":"1 44782U 19076D   26263.19299499 -.00000187  00000+0 -37608-4 0  9994","line2":"2 44782  45.0070 115.2660 0013036 213.8942 146.1060 14.01997740351151","mean_motion":14.0199774,"eccentricity":0.0013036,"inclination_deg":45.007,"raan_deg":115.266,"arg_perigee_deg":213.8942,"mean_anomaly_deg":146.106,"bstar":-3.7608e-5,"rev_number":35115,"period_min":102.71057926242,"perigee_km":877.41484941582,"apogee_km":896.35621616331,"semimajor_km":7265.0225327896,"source":"CELESTRAK","updated_at":"2026-09-20T09:00:14.542582Z"}}